Location: Berbisdorf
(50.7638°N, 12.9442°E)
Time: 04:21:43
(UTC+00:00)

GEOS 3 Rocket - Pass Details

Date: 07 June 2020
Orbit: 772 x 847 km, 115.0° (Epoch: 04 July)

Event Time Altitude Azimuth Distance (km) Brightness Sun altitude
Rises 00:11:30 0° 120° (ESE) 3,312 6.6 -15.1°
Reaches altitude 10° 00:13:47 10° 117° (ESE) 2,395 6.0 -15.0°
Maximum altitude 00:18:53 58° 39° (NE) 960 4.3 -14.8°
Drops below altitude 10° 00:24:06 10° 322° (NW) 2,451 6.6 -14.5°
Sets 00:26:28 0° 319° (NW) 3,396 7.3 -14.4°
